Location: Newark
(25.4800°N, 85.7200°E)
Time: 03:32:00
(UTC+00:00)

Vanguard 1 Rocket - Pass Details

Date: 20 August 2019
Orbit: 651 x 4225 km, 34.3° (Epoch: 20 September)

Event Time Altitude Azimuth Distance (km) Brightness Sun altitude
Rises 05:29:45 0° 276° (W) 5,745 11.3 72.3°
Reaches altitude 10° 05:33:58 10° 264° (W) 5,233 11.3 73.0°
Maximum altitude 05:46:36 26° 215° (SW) 5,179 11.7 74.8°
Drops below altitude 10° 06:04:32 10° 168° (SSE) 7,347 12.4 76.5°
Sets 06:12:32 0° 156° (SSE) 8,458 12.5 76.9°
